Date String (YYYY-MM-DD hh:mm:ss) UTC,Instrument flags,absolute air pressure of the measurement (hPa),sample flow rate (lpm),inlet stack bypass flow (lpm),air temperature of the measurement (°C),ambient temperature measured by the external sensor (°C),aerosol sample conditioner tube jacket temperature (°C),OPC LED temperature (°C),internal box temperature (°C),relative humidity of the measurement (%),span deviation,mass concentration of particles derived from Lorenz-Mie calculation of OPC scattering (μg/m³),mass concentration of particles derived from Lorenz-Mie calculation of OPC scattering (μg/m³),mass concentration of particles derived from Lorenz-Mie calculation of OPC scattering (μg/m³)
DateTimeUTC,F1_M11,P_M11,Q1_M11,Q2_M11,T1_M11,T2_M11,T3_M11,T4_M11,T5_M11,U1_M11,ZSPAN_M11,X0_M11,X2_M11,X1_M11
2024-06-01 10:00:00,SystemResetWarning,0829.0,5.00,000.00,030.3,029.5,000.0,038.8,032.0,018.6,0000.0,0009.23,0003.88,0003.36
2024-06-01 10:01:00,SystemResetWarning,0829.0,5.01,000.00,030.3,029.5,000.0,038.8,032.0,020.1,0000.0,0008.98,0003.87,0003.36
2024-06-01 10:02:00,SystemResetWarning,0828.9,5.01,000.00,030.3,029.5,000.0,038.8,032.0,021.8,0000.0,0008.77,0003.94,0003.41
2024-06-01 10:03:00,SystemResetWarning,0828.9,4.99,000.00,030.3,029.5,000.0,038.8,032.0,022.3,0000.0,0009.35,0004.04,0003.49
2024-06-01 10:04:00,SystemResetWarning,0828.9,4.99,000.00,030.3,029.5,000.0,038.8,032.0,022.7,0000.0,0010.28,0004.18,0003.58
2024-06-01 10:05:00,SystemResetWarning,0829.0,5.00,000.00,030.3,029.5,000.0,038.8,032.0,023.3,0000.0,0010.76,0004.36,0003.70
2024-06-01 10:06:00,SystemResetWarning,0829.0,5.00,000.00,030.3,029.5,000.0,038.8,032.0,023.4,0000.0,0010.95,0004.51,0003.84
2024-06-01 10:07:00,SystemResetWarning,0829.0,5.00,000.00,030.3,029.4,000.0,038.8,032.0,023.3,0000.0,0011.34,0004.62,0003.96
2024-06-01 10:08:00,SystemResetWarning,0829.0,5.00,000.00,030.3,029.4,000.0,038.8,032.0,023.0,0000.0,0011.62,0004.74,0004.05
2024-06-01 10:09:00,SystemResetWarning,0829.0,5.00,000.00,030.3,029.4,000.0,038.8,032.0,022.6,0000.0,0012.15,0004.82,0004.10
2024-06-01 10:10:00,SystemResetWarning,0829.0,5.00,000.00,030.3,029.4,000.0,038.8,032.0,022.1,0000.3,0013.26,0004.93,0004.16
2024-06-01 10:11:00,SystemResetWarning,0828.9,5.00,000.00,030.3,029.4,000.0,038.8,032.0,021.5,0001.1,0013.64,0005.04,0004.20
2024-06-01 10:12:00,SystemResetWarning,0828.9,5.00,000.00,030.3,029.4,000.0,038.8,032.0,021.6,0001.3,0014.55,0005.12,0004.27
2024-06-01 10:13:00,SystemResetWarning,0828.9,4.99,000.00,030.3,029.4,000.0,038.8,032.0,021.2,0001.1,0015.45,0005.15,0004.29
2024-06-01 10:14:00,SystemResetWarning,0829.0,4.99,000.00,030.3,029.4,000.0,038.8,032.0,021.2,0000.8,0016.69,0005.12,0004.26
2024-06-01 10:15:00,SystemResetWarning,0828.9,4.99,000.00,030.3,029.4,000.0,038.8,032.0,021.0,0000.0,0016.85,0005.10,0004.22
2024-06-01 10:16:00,SystemResetWarning,0828.9,5.01,000.00,030.3,029.4,000.0,038.8,032.0,022.0,0000.0,0016.41,0005.00,0004.18
2024-06-01 10:17:00,SystemResetWarning,0828.9,5.01,000.00,030.3,029.4,000.0,038.8,032.0,022.4,0000.0,0016.33,0004.95,0004.13
2024-06-01 10:18:00,SystemResetWarning,0828.9,4.99,000.00,030.3,029.5,000.0,038.8,032.0,022.4,0000.0,0017.01,0004.95,0004.09
2024-06-01 10:19:00,SystemResetWarning,0828.9,4.99,000.00,030.3,029.5,000.0,038.8,032.0,022.3,0000.0,0017.37,0004.94,0004.06
2024-06-01 10:20:00,SystemResetWarning,0829.0,5.00,000.00,030.3,029.5,000.0,038.8,032.0,022.3,0000.0,0018.23,0004.92,0004.04
2024-06-01 10:21:00,SystemResetWarning,0828.9,5.01,000.00,030.3,029.5,000.0,038.8,032.0,022.5,0000.0,0017.84,0004.90,0004.03
2024-06-01 10:22:00,SystemResetWarning,0829.0,5.00,000.00,030.3,029.5,000.0,038.8,032.0,021.7,0000.0,0016.82,0004.91,0004.04
2024-06-01 10:23:00,SystemResetWarning,0828.9,5.00,000.00,030.3,029.5,000.0,038.8,032.0,019.4,0000.0,0016.20,0004.89,0004.05
2024-06-01 10:24:00,SystemResetWarning,0829.0,4.99,000.00,030.3,029.5,000.0,038.8,032.0,018.4,0000.0,0015.24,0004.80,0003.99
2024-06-01 10:25:00,SystemResetWarning,0828.9,4.99,000.00,030.3,029.5,000.0,038.8,032.1,017.2,0000.0,0013.59,0004.76,0003.94
2024-06-01 10:26:00,SystemResetWarning,0828.9,5.01,000.00,030.3,029.5,000.0,038.8,032.1,017.5,0000.0,0012.84,0004.68,0003.88
2024-06-01 10:27:00,SystemResetWarning,0829.0,5.01,000.00,030.3,029.5,000.0,038.8,032.1,018.2,0000.0,0012.64,0004.60,0003.82
2024-06-01 10:28:00,SystemResetWarning,0828.9,5.00,000.00,030.3,029.5,000.0,038.8,032.0,018.6,0000.0,0012.87,0004.52,0003.74
2024-06-01 10:29:00,SystemResetWarning,0828.8,5.00,000.00,030.3,029.5,000.0,038.8,032.0,019.5,0000.0,0011.78,0004.41,0003.65
2024-06-01 10:30:00,SystemResetWarning,0828.8,5.00,000.00,030.3,029.5,000.0,038.8,032.1,019.8,0000.0,0011.12,0004.36,0003.61
2024-06-01 10:31:00,SystemResetWarning,0828.8,5.00,000.00,030.3,029.5,000.0,038.8,032.1,020.4,0000.0,0010.74,0004.32,0003.57
2024-06-01 10:32:00,SystemResetWarning,0828.8,5.00,000.00,030.3,029.5,000.0,038.8,032.0,020.9,0000.0,0011.11,0004.31,0003.55
2024-06-01 10:33:00,SystemResetWarning,0828.8,5.00,000.00,030.3,029.5,000.0,038.8,032.0,021.7,0000.0,0011.60,0004.29,0003.53
2024-06-01 10:34:00,SystemResetWarning,0828.8,5.00,000.00,030.3,029.5,000.0,038.8,032.1,021.9,0000.0,0012.82,0004.34,0003.56
2024-06-01 10:35:00,SystemResetWarning,0828.8,5.00,000.00,030.3,029.5,000.0,038.8,032.0,022.2,0000.0,0013.55,0004.48,0003.65
2024-06-01 10:36:00,SystemResetWarning,0828.9,5.02,000.00,030.3,029.5,000.0,038.8,032.0,021.9,0000.0,0013.81,0004.59,0003.76
2024-06-01 10:37:00,SystemResetWarning,0828.9,5.00,000.00,030.3,029.5,000.0,038.8,032.0,021.3,0000.0,0014.42,0004.68,0003.85
2024-06-01 10:38:00,SystemResetWarning,0828.9,4.99,000.00,030.3,029.5,000.0,038.8,032.0,021.9,0000.0,0014.84,0004.82,0003.95
2024-06-01 10:39:00,SystemResetWarning,0828.9,4.99,000.00,030.3,029.5,000.0,038.8,032.0,022.2,0000.0,0014.58,0004.95,0004.06
2024-06-01 10:40:00,SystemResetWarning,0829.0,5.01,000.00,030.3,029.5,000.0,038.8,032.0,021.1,0000.0,0014.56,0005.08,0004.16
2024-06-01 10:41:00,SystemResetWarning,0829.0,5.01,000.00,030.3,029.5,000.0,038.8,032.0,020.5,0000.0,0014.65,0005.14,0004.21
2024-06-01 10:42:00,SystemResetWarning,0828.9,4.99,000.00,030.3,029.5,000.0,038.8,032.0,020.3,0000.0,0014.10,0005.14,0004.24
2024-06-01 10:43:00,SystemResetWarning,0829.0,4.99,000.00,030.3,029.5,000.0,038.8,032.1,021.9,0000.0,0013.79,0005.20,0004.27
2024-06-01 10:44:00,SystemResetWarning,0828.9,4.99,000.00,030.3,029.5,000.0,038.8,032.1,023.2,0000.0,0013.38,0005.28,0004.35
2024-06-01 10:45:00,SystemResetWarning,0828.9,5.00,000.00,030.3,029.5,000.0,038.8,032.1,023.4,0000.0,0013.06,0005.39,0004.44
2024-06-01 10:46:00,SystemResetWarning,0828.9,5.00,000.00,030.3,029.5,000.0,038.8,032.1,023.2,0000.0,0012.48,0005.46,0004.53
2024-06-01 10:47:00,SystemResetWarning,0828.9,5.01,000.00,030.3,029.5,000.0,038.8,032.1,022.9,0000.0,0013.20,0005.55,0004.59
2024-06-01 10:48:00,SystemResetWarning,0829.0,5.01,000.00,030.3,029.5,000.0,038.8,032.0,021.3,0000.0,0013.36,0005.62,0004.63
2024-06-01 10:49:00,SystemResetWarning,0829.0,5.00,000.00,030.3,029.5,000.0,038.8,032.0,020.4,0000.0,0012.65,0005.58,0004.63
2024-06-01 10:50:00,SystemResetWarning,0828.9,4.99,000.00,030.3,029.5,000.0,038.8,032.1,019.8,0000.0,0012.56,0005.49,0004.57
2024-06-01 10:51:00,SystemResetWarning,0829.0,4.99,000.00,030.3,029.5,000.0,038.8,032.1,019.1,0000.0,0012.50,0005.34,0004.48
2024-06-01 10:52:00,SystemResetWarning,0828.9,5.00,000.00,030.3,029.5,000.0,038.8,032.0,019.0,0000.0,0012.39,0005.23,0004.41
2024-06-01 10:53:00,SystemResetWarning,0828.9,5.02,000.00,030.3,029.5,000.0,038.8,032.0,019.1,0000.0,0012.37,0005.19,0004.36
2024-06-01 10:54:00,SystemResetWarning,0829.0,5.01,000.00,030.3,029.5,000.0,038.8,032.0,019.1,0000.0,0011.91,0005.10,0004.30
2024-06-01 10:55:00,SystemResetWarning,0828.9,4.99,000.00,030.3,029.5,000.0,038.8,032.0,019.3,0000.0,0011.25,0004.94,0004.17
2024-06-01 10:56:00,SystemResetWarning,0828.9,5.00,000.00,030.3,029.5,000.0,038.8,032.1,019.6,0000.0,0011.19,0004.75,0004.01
2024-06-01 10:57:00,SystemResetWarning,0829.0,5.00,000.00,030.3,029.5,000.0,038.8,032.1,019.3,0000.0,0011.07,0004.58,0003.87
2024-06-01 10:58:00,SystemResetWarning,0828.9,4.99,000.00,030.3,029.5,000.0,038.8,032.1,019.0,0000.0,0010.64,0004.41,0003.72
2024-06-01 10:59:00,SystemResetWarning,0828.9,4.99,000.00,030.3,029.5,000.0,038.8,032.0,019.1,0000.0,0010.41,0004.26,0003.61
